Regional Weather Roundup
Issued by NWS

Home | Current Version | Previous Version | Graphics & Text | Print | Product List | Glossary On
Versions: 1 2 3 4 5 6 7 8 9 10 11 12 13 14 15 16 17 18 19 20 21 22 23 24 25 26 27 28 29 30 31 32 33 34 35 36 37 38 39 40 41 42 43 44 45 46 47 48 49 50
000
ASUS43 KFSD 251010
RWRSD

WEATHER ROUNDUP FOR SOUTH DAKOTA
NATIONAL WEATHER SERVICE SIOUX FALLS SD
500 AM CDT SAT OCT 25 2014

NOTE: "FAIR" INDICATES FEW OR NO CLOUDS BELOW 12,000 FEET WITH NO
SIGNIFICANT WEATHER AND/OR OBSTRUCTIONS TO VISIBILITY.


SDZ001>005-009-010-012>017-251100-
NORTHWEST AND NORTH CENTRAL SOUTH DAKOTA

CITY           SKY/WX    TMP DP  RH WIND       PRES   REMARKS
BUFFALO          N/A     46  31  55 CALM      30.08S
FAITH            N/A     47  31  53 W3        30.13F
MOBRIDGE       CLOUDY    50  37  61 N3        30.08S
$$

SDZ012>016-024>037-041>051-057-063-072>074-251100-
SOUTHWEST AND SOUTH CENTRAL SOUTH DAKOTA

CITY           SKY/WX    TMP DP  RH WIND       PRES   REMARKS
RAPID CTY ARPT CLEAR     42  32  67 NW8       30.15F
PIERRE         PTCLDY    43  34  70 NW7       30.11S
CUSTER         CLEAR     34  28  79 N3        30.20F
ELLSWORTH AFB  CLEAR     38  32  77 NW6       30.15S
PHILIP         CLEAR     37  32  82 W7        30.14S
PINE RIDGE     CLEAR     31  29  92 CALM      30.16S
SPEARFISH      FAIR      37  32  81 SE9       30.16F
WINNER         FAIR      49  36  61 SW6       30.12S
$$

SDZ004>011-016>023-039-040-251100-
NORTHEAST SOUTH DAKOTA

CITY           SKY/WX    TMP DP  RH WIND       PRES   REMARKS
ABERDEEN       MOCLDY    52  35  52 N7        30.09R
WATERTOWN      CLOUDY    50  36  58 NW8       30.07S
SISSETON         N/A     54  33  45 NW10      30.05R
$$

SDZ017-020-022-023-036>040-048>070-251100-
SOUTHEAST SOUTH DAKOTA

CITY           SKY/WX    TMP DP  RH WIND       PRES   REMARKS
SIOUX FALLS    PTCLDY    45  41  86 CALM      30.07R
HURON          MOCLDY    44  37  76 NW6       30.09R
CHAMBERLAIN    CLEAR     43  34  71 W3        30.11R
MITCHELL       PTCLDY    46  39  76 W6        30.09S
YANKTON        CLEAR     45  37  76 NW5       30.08S
$$

ABBREVIATIONS USED IN REMARKS
   TC - TEMPERATURE IN CELSIUS
  WCI - WIND CHILL INDEX
   HX - HEAT INDEX
  VSB - VISIBILITY




USA.gov is the U.S. government's official web portal to all federal, state and local government web resources and services.